Theta_e
311 312 312 312 312 312 311 311 311 311 311 311 312 313 311 312 311 300 293 298 302 310 309 301 301 301 302 299 302 304 292 287 289 292 296 299 299 304 307 307 309 314 317 321 329
310 310 311 311 312 311 311 311 312 312 311 311 310 311 312 311 299 294 303 314 311 312 301 297 295 297 293 295 297 293 288 287 293 294 293 296 295 299 300 302 303 309 317 325 328
309 311 312 312 312 311 311 311 311 312 312 311 311 311 312 304 291 290 309 312 310 304 300 299 299 296 289 294 292 291 284 290 291 294 295 294 294 297 298 298 302 303 303 310 325
309 310 311 313 312 312 311 311 312 312 312 312 312 311 311 299 278 294 309 310 309 300 296 293 295 290 287 286 292 286 290 291 292 293 292 291 294 292 296 296 304 302 303 307 316
310 311 312 311 312 311 311 311 312 312 312 313 312 311 302 291 290 300 308 305 299 297 293 290 288 289 285 286 288 285 287 289 292 291 291 292 290 290 291 296 297 298 305 308 310
311 311 310 311 311 311 311 312 312 312 313 313 312 311 296 286 298 300 299 298 297 294 291 292 289 290 286 286 285 287 288 287 289 289 291 288 288 290 290 296 298 301 302 306 310
311 311 310 311 311 312 312 312 313 313 313 313 312 305 297 291 298 297 298 296 297 295 291 293 293 290 288 285 289 288 283 285 286 288 287 289 283 284 290 293 293 295 298 301 307
311 312 312 312 312 312 312 312 313 312 312 312 311 300 292 298 297 297 297 296 297 297 295 295 294 290 288 289 286 283 282 277 283 285 287 287 277 284 288 290 293 295 297 300 307
312 312 312 311 311 311 311 312 311 312 309 307 299 296 288 300 291 295 296 293 295 296 296 298 295 289 288 283 279 281 272 275 278 285 284 284 279 284 288 287 286 289 294 301 306
312 311 311 310 310 310 311 310 306 300 298 300 298 288 289 285 291 293 295 296 294 295 292 291 289 285 284 279 270 270 274 275 275 280 283 281 281 285 288 288 287 291 292 294 298
311 310 309 309 309 310 300 291 287 285 287 284 283 285 287 290 291 289 294 293 293 290 284 289 282 279 280 280 280 279 276 274 278 281 280 280 281 283 286 288 288 291 295 300 303
310 310 309 308 309 305 294 288 287 288 282 286 286 286 288 289 284 288 294 287 287 283 287 283 279 284 285 284 280 279 276 274 278 281 279 279 278 281 283 285 287 289 291 299 304
310 309 308 309 305 296 291 290 293 289 278 281 284 285 286 288 285 286 291 290 286 283 283 280 282 286 284 282 280 278 276 275 275 279 280 278 275 279 283 285 285 290 292 293 304
310 310 309 308 296 292 289 294 291 287 265 274 280 284 287 286 282 291 294 292 288 282 284 282 286 284 283 281 282 276 281 279 278 276 270 278 269 277 279 281 284 288 291 292 303
311 310 309 302 292 289 292 292 289 283 259 277 279 288 285 281 284 286 295 292 286 283 284 280 282 283 282 282 284 279 283 281 279 276 274 272 272 274 280 279 282 288 292 300 298
311 308 304 297 292 290 292 287 284 267 258 267 278 279 276 279 282 286 289 293 290 286 286 284 289 287 285 286 285 285 282 280 280 277 269 271 270 270 276 280 283 289 296 294 294
307 303 297 295 288 291 288 282 268 262 270 268 272 278 275 274 279 282 281 280 280 276 271 280 280 288 288 282 284 283 276 268 266 266 264 268 270 274 282 286 286 293 291 292 292
302 298 295 292 289 288 283 273 260 257 261 275 277 276 270 276 276 276 278 276 283 282 278 272 272 284 287 284 280 279 277 268 260 265 267 275 271 277 283 286 294 291 290 290 290
300 290 290 290 290 285 277 263 262 263 276 275 275 265 265 275 273 270 271 276 282 285 276 275 274 287 287 288 285 280 276 282 274 276 274 276 278 282 285 284 286 286 286 286 287
289 287 288 289 286 280 270 266 263 275 278 277 265 270 263 265 271 268 271 278 280 286 285 279 275 283 285 286 286 283 285 275 276 270 270 274 274 273 280 281 283 283 284 285 286
286 281 287 285 282 273 265 258 264 278 279 275 272 269 271 269 272 271 272 279 285 284 284 282 280 280 285 282 281 282 280 281 281 279 274 271 273 280 281 282 282 283 284 285 285
283 275 286 285 272 259 263 262 278 278 280 279 278 277 272 275 272 268 272 279 285 284 278 281 281 276 277 286 284 284 281 281 277 274 276 274 272 281 284 284 284 283 284 285 286
279 278 285 283 266 264 264 267 274 277 276 279 275 279 278 271 271 276 277 284 285 282 279 282 279 271 274 278 281 279 282 282 283 280 274 271 272 282 282 282 284 283 284 285 286
280 273 277 273 271 269 263 265 269 277 279 281 279 279 278 270 276 273 277 282 283 282 286 287 279 270 271 275 278 275 279 281 280 273 274 274 274 277 279 279 281 283 284 284 284
278 272 275 268 269 270 273 273 269 269 278 279 274 276 275 271 272 269 278 280 282 283 282 280 275 277 278 279 279 277 276 279 277 277 273 274 274 277 279 280 281 283 283 283 282
278 277 276 268 276 275 273 274 271 272 276 274 273 277 277 271 275 275 277 278 277 280 278 279 275 276 275 277 279 276 276 279 279 278 278 278 276 282 282 283 282 282 282 281 281
281 282 281 277 276 271 272 276 275 276 277 279 277 276 275 277 277 279 279 280 279 277 276 275 270 269 266 272 274 273 275 276 278 279 279 274 278 282 279 280 280 281 282 281 281
Wind_Speed
7 7 8 9 10 9 9 10 11 10 11 13 12 16 15 17 15 4 5 6 3 8 6 4 6 6 3 2 3 2 4 8 4 7 8 6 4 5 5 4 3 5 3 1 2
8 9 9 9 9 10 11 12 12 12 10 11 11 14 15 16 6 5 9 6 4 6 4 5 4 5 3 2 1 3 5 5 3 3 3 6 4 6 6 5 2 3 6 4 5
7 9 10 10 9 10 12 12 13 12 13 10 11 12 14 5 5 4 2 12 10 10 4 2 1 3 3 2 2 3 5 1 5 1 3 6 11 4 5 7 2 3 11 16 7
9 10 12 11 8 10 12 12 13 13 14 12 11 10 10 3 3 3 5 3 11 6 5 2 3 3 2 2 3 4 4 2 3 5 6 9 8 7 10 6 8 9 11 15 13
8 10 9 10 11 12 13 13 14 14 14 14 11 9 4 4 9 7 13 9 4 4 2 1 2 3 4 3 3 5 6 8 3 5 6 8 11 13 24 11 12 14 12 11 13
7 9 11 12 13 14 14 14 14 14 14 14 12 9 2 8 3 4 5 4 2 2 0 3 3 3 4 4 5 3 5 8 5 5 4 9 13 8 2 6 7 9 8 10 8
10 11 12 12 13 14 15 15 15 15 16 15 13 1 5 15 3 3 4 3 4 3 3 4 4 3 2 3 5 4 12 13 14 5 7 3 17 23 4 8 14 19 15 15 12
10 11 12 14 15 15 16 16 16 16 16 15 12 1 6 2 2 2 2 5 6 4 5 4 5 5 5 4 4 3 5 6 1 12 9 10 27 4 7 7 10 11 10 12 13
11 13 14 10 9 11 12 14 15 14 12 10 2 3 7 8 2 4 6 5 1 2 3 3 4 5 3 6 7 8 8 14 14 11 5 14 12 8 12 15 16 15 13 11 11
12 9 9 9 10 11 12 14 7 2 4 4 4 3 5 3 3 3 3 2 3 2 2 4 4 6 4 8 12 9 10 8 15 4 11 10 16 14 10 13 11 9 13 14 15
9 9 11 10 11 7 5 5 6 4 5 2 4 5 4 7 4 4 1 3 2 3 6 6 6 11 22 22 15 9 10 13 10 7 5 14 15 17 15 16 16 12 13 11 12
11 11 8 7 6 4 4 5 2 3 7 3 4 6 6 2 5 5 6 3 6 9 10 5 13 22 16 15 21 19 18 24 13 5 11 12 18 19 17 18 16 13 15 12 6
10 7 5 3 6 5 4 3 0 3 1 6 3 3 5 1 5 7 11 4 6 10 12 14 19 7 12 19 18 22 23 22 18 5 13 10 12 18 14 17 17 15 15 14 11
9 3 1 7 5 1 3 2 1 3 7 7 4 3 3 3 6 6 7 4 5 9 8 13 11 11 15 19 20 18 21 22 18 9 7 12 10 10 10 17 20 16 16 15 8
2 5 8 2 5 3 0 0 1 5 6 8 8 4 9 3 6 2 3 3 10 11 4 16 9 17 20 19 15 14 10 16 18 14 4 6 7 9 12 17 16 17 17 11 10
9 14 10 4 3 1 1 3 5 10 6 9 6 8 9 4 3 7 4 3 7 11 11 23 11 9 8 7 16 1 3 8 8 7 8 11 11 10 10 17 14 18 13 11 11
15 11 6 2 1 2 3 4 8 8 4 10 7 9 6 6 7 4 5 6 3 7 8 16 3 3 3 2 9 7 6 1 1 3 9 7 10 15 5 4 6 16 13 12 12
14 9 8 3 3 2 4 8 9 3 6 5 6 12 3 7 4 7 6 4 3 5 9 5 11 4 5 5 5 16 7 6 8 5 5 11 8 3 5 10 7 15 15 13 16
9 2 3 5 3 3 7 7 8 7 4 7 8 7 8 5 0 8 2 4 4 4 6 7 9 1 9 7 8 7 12 5 6 7 5 3 1 3 5 7 15 16 17 13 14
3 3 3 6 3 5 8 3 2 4 3 3 3 2 4 7 8 6 5 5 6 3 5 6 10 1 5 1 5 6 5 5 5 4 2 3 3 7 5 5 10 15 17 13 12
4 4 3 4 5 8 5 6 5 5 5 1 2 4 5 5 3 5 6 9 5 8 13 8 4 9 3 8 9 2 3 5 3 2 0 2 4 9 4 6 12 14 12 14 9
3 3 3 2 7 2 3 7 6 3 2 2 3 3 4 4 5 3 5 5 10 11 10 5 6 6 3 1 8 3 5 3 3 2 4 3 5 11 9 10 12 13 12 9 10
4 2 2 3 4 1 4 3 3 1 1 2 2 1 3 4 5 4 5 7 8 11 7 6 5 7 8 6 8 8 15 5 2 3 7 3 4 9 13 13 12 11 8 10 8
4 3 5 6 0 7 4 2 2 3 2 2 4 3 4 3 4 6 6 7 13 10 18 6 6 3 4 2 8 12 25 25 9 9 11 10 7 13 13 12 11 9 9 10 9
3 2 3 1 3 3 1 4 1 3 2 1 4 4 3 4 4 3 4 12 6 11 10 6 4 3 2 11 4 24 24 24 25 17 12 6 15 12 11 10 9 7 8 12 13
5 5 2 3 2 3 3 2 3 4 3 3 3 7 4 4 5 5 7 4 4 12 10 9 4 3 5 7 14 20 27 22 20 15 9 11 16 13 12 11 12 8 10 15 13
1 2 5 1 3 4 4 4 3 2 3 3 3 3 4 6 4 8 7 8 8 8 8 6 5 6 5 8 8 17 18 15 11 17 7 14 9 7 14 14 14 14 14 14 12
Wind_Direction
353 351 345 344 344 336 336 333 332 336 339 340 337 336 336 330 340 347 293 233 241 326 21 356 23 358 46 39 352 354 249 245 237 212 232 11 358 350 325 263 223 195 201 223 158
340 332 327 325 333 334 325 320 328 325 331 334 332 330 329 346 344 307 252 277 250 301 25 45 15 4 29 38 354 181 238 226 202 45 19 342 25 323 321 304 260 281 297 327 159
326 323 321 304 316 319 320 318 323 324 323 328 328 332 336 13 343 257 326 76 50 42 59 49 64 52 22 358 234 238 238 253 285 284 61 304 301 351 286 264 148 346 320 321 234
325 313 321 325 315 313 317 315 311 315 318 316 321 327 346 43 324 269 342 5 9 30 38 18 33 51 359 255 264 277 270 349 328 337 321 293 313 276 243 260 301 313 300 289 299
317 312 324 334 317 307 308 309 309 312 314 314 309 317 56 327 251 284 314 358 20 44 80 317 228 158 209 222 261 242 260 261 198 302 290 286 272 275 272 278 295 292 293 280 279
329 321 315 313 309 308 306 304 305 307 304 302 308 322 107 274 216 244 283 334 67 102 149 140 211 237 260 229 206 267 279 288 259 246 279 273 281 270 351 332 258 243 270 285 274
314 312 311 307 304 303 301 301 303 301 302 304 302 275 222 246 190 159 155 187 172 139 248 214 184 179 196 261 266 290 287 280 259 200 232 266 270 250 273 276 256 264 265 276 276
307 308 299 297 295 297 298 301 301 301 300 299 300 159 254 320 51 294 201 261 234 230 213 222 207 202 179 283 308 272 279 279 282 194 226 160 258 287 298 288 257 261 270 263 265
308 308 308 317 316 318 314 306 300 301 317 303 253 159 264 329 291 275 172 236 143 162 204 130 121 198 177 216 257 196 259 231 277 198 182 196 264 278 227 246 257 260 265 264 265
306 323 318 312 314 316 318 306 325 51 3 37 51 41 288 280 308 292 198 205 199 163 273 227 219 214 191 175 231 205 233 230 239 220 201 226 245 257 269 276 261 252 258 256 257
329 310 303 300 307 329 359 11 15 352 41 231 214 232 283 292 266 254 155 136 176 185 227 202 209 214 217 205 225 227 228 244 243 214 236 241 250 261 257 260 261 254 254 253 242
302 292 306 307 327 65 67 78 105 185 311 303 254 267 277 261 309 281 143 179 204 223 223 225 228 236 240 233 229 237 243 251 274 198 193 244 252 258 253 254 255 251 256 248 226
297 318 334 347 104 43 79 88 202 144 83 302 253 268 293 108 276 278 160 205 237 248 259 246 254 251 238 240 234 225 224 244 242 187 226 258 271 259 248 249 251 240 244 251 216
288 290 324 135 52 219 59 343 89 95 68 294 349 340 336 311 275 221 209 205 221 265 259 248 259 248 246 242 220 237 218 244 247 227 238 173 271 245 237 245 235 220 230 233 166
248 142 119 78 145 57 279 37 77 56 41 309 306 310 323 216 307 323 202 193 255 253 226 259 272 273 266 248 197 236 200 220 228 216 227 235 256 241 225 242 237 208 217 184 126
124 120 117 55 56 350 349 53 45 44 279 333 322 343 353 323 289 307 273 234 260 278 251 260 249 265 259 267 189 123 236 218 214 226 246 232 196 274 234 230 226 202 168 143 129
106 85 63 64 138 347 47 44 35 97 326 314 334 338 337 291 316 326 301 304 308 309 320 322 245 243 191 176 185 193 117 46 318 212 238 198 192 250 291 328 269 159 131 128 109
99 83 66 63 334 59 53 47 66 236 258 302 306 315 335 341 313 319 304 318 284 269 294 336 320 191 181 224 194 190 165 176 196 206 248 142 234 264 321 309 147 121 117 106 98
106 20 52 354 350 60 69 51 195 200 298 321 322 26 324 334 316 359 308 279 274 326 348 297 266 239 221 206 161 161 211 238 317 230 214 176 185 205 29 17 103 112 101 92 90
84 69 37 322 18 60 72 171 155 230 306 302 29 82 313 306 348 25 313 261 296 1 340 278 287 278 321 238 237 215 130 164 186 263 92 145 78 346 14 43 96 94 95 96 82
60 57 298 30 53 47 108 218 229 249 243 289 304 311 263 295 272 303 273 295 356 313 315 283 257 289 287 42 340 18 308 279 207 248 230 100 53 347 21 53 96 86 94 96 104
105 59 305 58 51 42 115 193 218 275 343 290 251 247 228 289 281 284 277 288 333 326 320 280 298 284 271 89 22 319 291 247 286 80 47 68 56 348 47 61 73 76 79 84 84
110 164 359 85 106 21 302 309 206 314 261 297 280 288 293 264 305 272 303 263 332 329 329 310 340 320 355 335 6 356 2 340 332 53 22 70 43 8 37 50 52 74 81 85 73
100 69 348 48 247 128 139 272 319 312 245 318 291 313 288 301 242 300 303 307 339 323 349 335 11 68 41 293 352 7 21 29 49 69 79 52 71 30 37 45 50 57 58 69 65
26 219 175 223 336 104 92 154 43 340 302 162 315 225 320 301 304 265 295 308 315 355 341 34 19 26 71 16 15 35 24 27 43 33 59 66 64 37 36 35 39 54 68 72 64
136 139 58 132 138 105 347 210 157 280 158 290 233 295 284 225 210 295 345 349 330 331 340 351 314 20 351 348 41 47 20 23 34 31 67 60 63 35 39 44 48 47 63 66 63
197 35 100 122 129 97 222 181 213 131 269 234 230 309 279 250 229 248 230 258 270 303 318 346 332 18 306 337 343 36 6 7 39 28 1 42 35 42 50 39 29 36 47 60 65